TimeEDT,TemperatureF,Dew PointF,Humidity,Sea Level PressureIn,VisibilityMPH,Wind Direction,Wind SpeedMPH,Gust SpeedMPH,PrecipitationIn,Events,Conditions,WindDirDegrees,DateUTC
12:54 AM,57.0,55.0,93,30.17,10.0,Calm,Calm,-,N/A,,Clear,0,2009-09-03 04:54:00
1:54 AM,55.0,54.0,96,30.16,8.0,Calm,Calm,-,N/A,,Clear,0,2009-09-03 05:54:00
2:18 AM,53.6,53.6,100,30.20,1.0,Calm,Calm,-,N/A,,Mist,0,2009-09-03 06:18:00
2:25 AM,53.6,53.6,100,30.20,0.5,Calm,Calm,-,N/A,Fog,Fog,0,2009-09-03 06:25:00
2:30 AM,53.6,53.6,100,30.20,1.8,Calm,Calm,-,N/A,,Partly Cloudy,0,2009-09-03 06:30:00
2:32 AM,53.6,53.6,100,30.20,4.0,Calm,Calm,-,N/A,,Partly Cloudy,0,2009-09-03 06:32:00
2:54 AM,54.0,53.1,97,30.15,10.0,Calm,Calm,-,N/A,,Scattered Clouds,0,2009-09-03 06:54:00
3:54 AM,54.0,53.1,97,30.15,10.0,NNW,3.5,-,N/A,,Mostly Cloudy,330,2009-09-03 07:54:00
4:54 AM,54.0,53.1,97,30.14,9.0,Calm,Calm,-,N/A,,Mostly Cloudy,0,2009-09-03 08:54:00
5:54 AM,53.1,52.0,96,30.14,10.0,Calm,Calm,-,N/A,,Clear,0,2009-09-03 09:54:00
6:28 AM,51.8,51.8,100,30.19,2.0,Calm,Calm,-,N/A,,Mostly Cloudy,0,2009-09-03 10:28:00
6:36 AM,51.8,51.8,100,30.19,1.0,Calm,Calm,-,N/A,,Mostly Cloudy,0,2009-09-03 10:36:00
6:50 AM,51.8,51.8,100,30.19,2.0,Calm,Calm,-,N/A,,Partly Cloudy,0,2009-09-03 10:50:00
6:54 AM,51.1,51.1,100,30.14,3.0,Calm,Calm,-,N/A,,Scattered Clouds,0,2009-09-03 10:54:00
7:54 AM,53.1,52.0,96,30.16,10.0,Calm,Calm,-,N/A,,Clear,0,2009-09-03 11:54:00
8:54 AM,57.9,55.0,90,30.16,10.0,Calm,Calm,-,N/A,,Clear,0,2009-09-03 12:54:00
9:54 AM,62.1,53.1,72,30.15,10.0,Variable,3.5,-,N/A,,Clear,0,2009-09-03 13:54:00
10:54 AM,66.0,55.0,68,30.14,10.0,Calm,Calm,-,N/A,,Clear,0,2009-09-03 14:54:00
11:54 AM,69.1,54.0,58,30.12,10.0,SE,3.5,-,N/A,,Clear,130,2009-09-03 15:54:00
12:54 PM,72.0,55.0,55,30.09,10.0,NW,4.6,-,N/A,,Clear,320,2009-09-03 16:54:00
1:54 PM,75.0,57.0,53,30.07,10.0,Variable,6.9,-,N/A,,Clear,0,2009-09-03 17:54:00
2:54 PM,77.0,55.0,47,30.05,10.0,Variable,4.6,-,N/A,,Clear,0,2009-09-03 18:54:00
3:54 PM,77.0,54.0,45,30.03,10.0,SW,4.6,-,N/A,,Clear,230,2009-09-03 19:54:00
4:54 PM,75.9,54.0,46,30.02,10.0,West,3.5,-,N/A,,Scattered Clouds,260,2009-09-03 20:54:00
5:54 PM,75.0,57.0,53,30.02,10.0,Calm,Calm,-,N/A,,Overcast,0,2009-09-03 21:54:00
6:54 PM,73.0,59.0,61,30.03,10.0,NNW,9.2,-,N/A,,Mostly Cloudy,340,2009-09-03 22:54:00
7:54 PM,71.1,59.0,66,30.04,10.0,NNW,9.2,-,N/A,,Overcast,340,2009-09-03 23:54:00
8:54 PM,70.0,57.9,65,30.05,10.0,NNW,5.8,-,N/A,,Partly Cloudy,330,2009-09-04 00:54:00
9:54 PM,69.1,60.1,73,30.06,10.0,Calm,Calm,-,N/A,,Mostly Cloudy,0,2009-09-04 01:54:00
10:54 PM,66.0,61.0,84,30.06,10.0,Calm,Calm,-,N/A,,Partly Cloudy,0,2009-09-04 02:54:00
11:54 PM,64.0,61.0,90,30.07,10.0,Calm,Calm,-,N/A,,Mostly Cloudy,0,2009-09-04 03:54:00